Latest Weather Observations for Nambour

IDQ60901

Issued at 12:21 pm EST Thursday 28 May 2015 (issued every 10 minutes, with the page automatically refreshed every 10 minutes)

About weather observations | Map of Brisbane area stations | Latest observations for Brisbane area | Other Formats
Station Details ID: 040988 Name: NAMBOUR DAFF - HILLSIDE Lat: -26.64 Lon: 152.94 Height: 53.24 m
Data from the previous 72 hours. | See also: Recent months at Nambour
Date/Time
EST
Tmp

°C
App
Tmp
°C
Dew
Point
°C
Rel
Hum
%
Delta-T

°C
Wind Press
QNH
hPa
Press
MSL
hPa
Rain
since
9 am
mm
Dir
 
Spd
km/h
Gust
km/h
Spd
kts
Gust
kts
28/12:00pm 23.1 24.1 15.4 62 4.6 NE 4 13 2 7 1023.7 1023.6 0.0
28/11:30am 22.8 23.9 15.6 64 4.3 ESE 4 9 2 5 1024.2 1024.1 0.0
28/11:00am 22.1 22.7 15.2 65 4.1 ESE 6 9 3 5 1024.2 1024.1 0.0
28/10:30am 21.8 22.4 15.4 67 3.8 E 6 11 3 6 1024.5 1024.4 0.0
28/10:00am 20.4 21.9 15.6 74 2.8 ESE 2 6 1 3 1025.1 1025.0 0.0
28/09:30am 19.2 19.5 15.1 77 2.4 ESE 7 13 4 7 1025.0 1024.9 0.0
28/09:00am 19.4 21.1 16.1 81 2.0 SSE 2 6 1 3 1024.8 1024.7 0.0
28/08:30am 17.6 19.9 16.8 95 0.5 CALM 0 0 0 0 1024.5 1024.4 0.0
28/08:00am 15.8 17.5 15.3 97 0.3 CALM 0 0 0 0 1024.2 1024.1 0.0
28/07:30am 14.3 15.5 13.8 97 0.3 CALM 0 0 0 0 1024.1 1024.0 0.0
28/07:00am 12.8 13.5 12.3 97 0.3 CALM 0 0 0 0 1024.0 1023.9 0.0
28/06:30am 12.9 13.7 12.4 97 0.3 CALM 0 0 0 0 1023.6 1023.5 0.0
28/06:00am 13.1 13.5 12.6 97 0.3 W 2 2 1 1 1023.0 1022.9 0.0
28/05:30am 13.0 13.8 12.5 97 0.3 CALM 0 0 0 0 1023.0 1022.9 0.0
28/05:00am 13.1 13.9 12.6 97 0.3 CALM 0 0 0 0 1022.6 1022.5 0.0
28/04:30am 13.8 14.8 13.3 97 0.3 CALM 0 0 0 0 1022.5 1022.4 0.0
28/04:00am 13.3 14.2 12.8 97 0.3 CALM 0 2 0 1 1022.6 1022.5 0.0
28/03:30am 14.0 15.1 13.5 97 0.3 CALM 0 0 0 0 1022.7 1022.6 0.0
28/03:00am 14.0 15.1 13.5 97 0.3 CALM 0 0 0 0 1022.6 1022.5 0.0
28/02:30am 13.2 14.0 12.7 97 0.3 CALM 0 0 0 0 1022.5 1022.4 0.0
28/02:00am 14.1 15.2 13.6 97 0.3 CALM 0 0 0 0 1022.4 1022.3 0.0
28/01:30am 14.5 15.8 14.0 97 0.3 CALM 0 0 0 0 1022.8 1022.7 0.0
28/01:00am 14.0 15.1 13.4 96 0.3 CALM 0 0 0 0 1023.1 1023.0 0.0
28/12:30am 14.6 15.9 14.1 97 0.3 CALM 0 0 0 0 1023.1 1023.0 0.0
28/12:00am 14.7 16.0 14.2 97 0.3 CALM 0 0 0 0 1023.1 1023.0 0.0
 
Date/Time
EST
Tmp

°C
App
Tmp
°C
Dew
Point
°C
Rel
Hum
%
Delta-T

°C
Wind Press
QNH
hPa
Press
MSL
hPa
Rain
since
9 am
mm
Dir
 
Spd
km/h
Gust
km/h
Spd
kts
Gust
kts
27/11:30pm 14.4 15.6 13.8 96 0.3 CALM 0 0 0 0 1023.3 1023.2 0.0
27/11:00pm 15.0 16.4 14.4 96 0.3 CALM 0 0 0 0 1023.4 1023.3 0.0
27/10:30pm 15.1 16.5 14.5 96 0.3 CALM 0 0 0 0 1023.7 1023.6 0.0
27/10:00pm 14.9 16.2 14.1 95 0.5 CALM 0 0 0 0 1023.6 1023.5 0.0
27/09:30pm 15.3 16.8 14.7 96 0.3 CALM 0 0 0 0 1023.5 1023.4 0.0
27/09:00pm 15.3 16.7 14.5 95 0.5 CALM 0 0 0 0 1023.5 1023.4 0.0
27/08:30pm 15.6 17.1 14.6 94 0.6 CALM 0 0 0 0 1023.6 1023.5 0.0
27/08:00pm 16.1 17.8 15.1 94 0.6 CALM 0 0 0 0 1023.5 1023.4 0.0
27/07:30pm 16.2 17.9 15.1 93 0.6 CALM 0 0 0 0 1023.6 1023.5 0.0
27/07:00pm 16.4 18.0 14.9 91 0.9 CALM 0 0 0 0 1023.2 1023.1 0.0
27/06:30pm 16.8 18.5 15.2 90 0.9 CALM 0 0 0 0 1022.8 1022.7 0.0
27/06:00pm 17.2 18.7 14.7 85 1.4 CALM 0 0 0 0 1022.7 1022.6 0.0
27/05:30pm 17.9 19.2 14.2 79 2.1 CALM 0 0 0 0 1022.6 1022.5 0.0
27/05:00pm 18.7 20.2 14.6 77 2.4 CALM 0 2 0 1 1022.6 1022.5 0.0
27/04:30pm 19.9 21.5 14.9 73 2.9 CALM 0 2 0 1 1022.3 1022.2 0.0
27/04:00pm 20.4 21.4 14.3 68 3.5 ESE 2 4 1 2 1021.8 1021.7 0.0
27/03:30pm 21.4 21.3 13.8 62 4.4 ESE 7 11 4 6 1021.6 1021.5 0.0
27/03:00pm 21.3 22.4 14.5 65 4.0 SW 2 7 1 4 1021.6 1021.5 0.0
27/02:30pm 22.3 22.7 14.7 62 4.5 E 6 9 3 5 1021.7 1021.6 0.0
27/02:00pm 23.0 23.5 14.0 57 5.3 ESE 4 6 2 3 1021.8 1021.7 0.0
27/01:30pm 23.0 23.2 14.3 58 5.1 E 6 11 3 6 1021.9 1021.8 0.0
27/01:00pm 22.1 22.6 14.0 60 4.7 S 4 6 2 3 1022.5 1022.4 0.0
27/12:30pm 22.6 23.4 14.7 61 4.7 ESE 4 9 2 5 1022.8 1022.7 0.0
27/12:00pm 22.8 23.0 14.1 58 5.1 ESE 6 11 3 6 1023.5 1023.4 0.0
27/11:30am 22.6 22.8 14.2 59 4.9 SE 6 13 3 7 1024.0 1023.9 0.0
27/11:00am 21.7 21.7 14.1 62 4.4 ESE 7 15 4 8 1024.5 1024.4 0.0
27/10:30am 21.7 21.7 15.1 66 3.9 ESE 9 15 5 8 1024.7 1024.6 0.0
27/10:00am 21.7 22.1 14.8 65 4.1 SE 6 13 3 7 1025.0 1024.9 0.0
27/09:30am 20.9 21.2 14.5 67 3.7 ESE 6 13 3 7 1024.8 1024.7 0.0
27/09:00am 20.5 21.5 15.3 72 3.1 SE 4 9 2 5 1025.2 1025.1 0.0
27/08:30am 18.9 19.2 14.6 76 2.5 SE 6 11 3 6 1024.9 1024.8 0.0
27/08:00am 15.9 17.4 14.6 92 0.7 CALM 0 0 0 0 1024.8 1024.7 0.0
27/07:30am 14.9 16.3 14.3 96 0.3 CALM 0 0 0 0 1024.5 1024.4 0.0
27/07:00am 13.7 14.7 13.1 96 0.3 CALM 0 0 0 0 1024.2 1024.1 0.0
27/06:30am 13.3 14.2 12.8 97 0.3 CALM 0 0 0 0 1023.9 1023.8 0.0
27/06:00am 12.9 13.6 12.3 96 0.3 CALM 0 0 0 0 1023.7 1023.6 0.0
27/05:30am 13.9 14.6 13.3 96 0.3 W 2 4 1 2 1023.5 1023.4 0.0
27/05:00am 13.5 14.4 12.9 96 0.3 CALM 0 0 0 0 1023.1 1023.0 0.0
27/04:30am 13.8 14.8 13.2 96 0.3 CALM 0 0 0 0 1023.1 1023.0 0.0
27/04:00am 13.9 14.9 13.3 96 0.3 CALM 0 0 0 0 1023.1 1023.0 0.0
27/03:30am 13.8 14.7 13.0 95 0.4 CALM 0 0 0 0 1023.3 1023.2 0.0
27/03:00am 14.3 15.5 13.7 96 0.3 CALM 0 0 0 0 1023.6 1023.5 0.0
27/02:30am 14.5 15.7 13.7 95 0.4 CALM 0 0 0 0 1023.8 1023.7 0.0
27/02:00am 14.7 15.9 13.9 95 0.4 CALM 0 0 0 0 1023.6 1023.5 0.0
27/01:30am 15.0 16.3 14.0 94 0.6 CALM 0 0 0 0 1023.7 1023.6 0.0
27/01:00am 15.5 16.9 14.5 94 0.6 CALM 0 0 0 0 1024.0 1023.9 0.0
27/12:30am 15.7 17.2 14.7 94 0.6 CALM 0 0 0 0 1024.3 1024.2 0.0
27/12:00am 16.8 17.6 14.8 88 1.1 SW 4 7 2 4 1024.5 1024.4 0.0
 
Date/Time
EST
Tmp

°C
App
Tmp
°C
Dew
Point
°C
Rel
Hum
%
Delta-T

°C
Wind Press
QNH
hPa
Press
MSL
hPa
Rain
since
9 am
mm
Dir
 
Spd
km/h
Gust
km/h
Spd
kts
Gust
kts
26/11:30pm 16.6 17.7 15.5 93 0.6 SW 4 7 2 4 1024.6 1024.5 0.0
26/11:00pm 15.9 17.5 14.8 93 0.6 CALM 0 0 0 0 1024.9 1024.8 0.0
26/10:30pm 16.1 17.6 14.6 91 0.9 CALM 0 0 0 0 1025.4 1025.3 0.0
26/10:00pm 16.4 18.0 14.8 90 0.9 CALM 0 0 0 0 1025.3 1025.2 0.0
26/09:30pm 16.9 18.2 15.1 89 1.0 SW 2 6 1 3 1025.5 1025.4 0.0
26/09:00pm 16.9 18.1 14.9 88 1.2 SSW 2 6 1 3 1025.4 1025.3 0.0
26/08:30pm 16.9 18.3 14.5 86 1.4 CALM 0 6 0 3 1025.5 1025.4 0.0
26/08:00pm 17.2 18.6 14.5 84 1.5 CALM 0 0 0 0 1025.6 1025.5 0.0
26/07:30pm 17.5 19.0 14.6 83 1.7 CALM 0 4 0 2 1025.7 1025.6 0.0
26/07:00pm 17.6 19.0 14.5 82 1.8 CALM 0 2 0 1 1025.6 1025.5 0.0
26/06:30pm 18.0 19.4 14.5 80 2.0 CALM 0 0 0 0 1025.2 1025.1 0.0
26/06:00pm 18.3 19.5 14.8 80 2.0 SW 2 6 1 3 1025.3 1025.2 0.0
26/05:30pm 18.1 19.7 14.8 81 1.9 CALM 0 0 0 0 1024.8 1024.7 0.0
26/05:00pm 18.5 19.3 14.8 79 2.1 SW 4 4 2 2 1024.6 1024.5 0.0
26/04:30pm 19.4 20.9 14.6 74 2.8 CALM 0 2 0 1 1024.3 1024.2 0.0
26/04:00pm 20.0 21.6 14.8 72 3.0 CALM 0 2 0 1 1024.2 1024.1 0.0
26/03:30pm 20.4 21.6 15.0 71 3.2 ESE 2 6 1 3 1024.1 1024.0 0.0
26/03:00pm 20.6 22.2 14.9 70 3.3 CALM 0 2 0 1 1024.4 1024.3 0.0
26/02:30pm 20.8 21.1 14.5 67 3.7 ESE 6 11 3 6 1024.4 1024.3 0.0
26/02:00pm 20.8 21.6 14.7 68 3.6 SE 4 7 2 4 1024.7 1024.6 0.0
26/01:30pm 20.6 21.2 14.3 67 3.7 ESE 4 7 2 4 1024.9 1024.8 0.0
26/01:00pm 21.3 22.0 14.5 65 4.0 ESE 4 7 2 4 1025.3 1025.2 0.0
26/12:30pm 22.5 23.5 15.4 64 4.3 E 4 13 2 7 1025.7 1025.6 0.0
26/12:00pm 21.0 21.0 13.7 63 4.2 SE 6 11 3 6 1026.6 1026.5 0.0
26/11:30am 21.3 21.8 14.0 63 4.2 SE 4 9 2 5 1026.8 1026.7 0.0
26/11:00am 20.8 20.9 14.0 65 3.9 SE 6 11 3 6 1027.4 1027.3 0.0
26/10:30am 21.0 21.1 13.9 64 4.1 SSE 6 13 3 7 1027.4 1027.3 0.0
26/10:00am 20.0 20.0 13.5 66 3.7 SE 6 11 3 6 1027.9 1027.7 0.0
26/09:30am 19.5 19.6 13.9 70 3.2 E 6 11 3 6 1028.0 1027.8 0.0
26/09:00am 18.7 19.1 13.8 73 2.8 SE 4 7 2 4 1028.4 1028.2 0.8
26/08:30am 18.7 19.6 14.0 74 2.7 E 2 9 1 5 1028.0 1027.8 0.8
26/08:00am 15.4 16.6 13.9 91 0.8 CALM 0 0 0 0 1028.1 1027.9 0.8
26/07:30am 14.3 15.1 12.7 90 0.9 CALM 0 0 0 0 1028.0 1027.8 0.8
26/07:00am 13.7 14.5 12.4 92 0.7 CALM 0 0 0 0 1027.6 1027.5 0.8
26/06:30am 13.6 14.2 11.8 89 1.0 CALM 0 0 0 0 1027.8 1027.6 0.8
26/06:00am 14.4 15.3 13.0 91 0.8 CALM 0 0 0 0 1027.8 1027.6 0.8
26/05:30am 14.3 15.1 12.5 89 1.0 CALM 0 0 0 0 1027.5 1027.4 0.8
26/05:00am 14.4 14.8 12.6 89 1.0 WSW 2 4 1 2 1027.2 1027.1 0.8
26/04:30am 13.9 14.2 12.1 89 1.0 SW 2 6 1 3 1027.2 1027.1 0.8
26/04:00am 13.8 14.4 12.0 89 1.0 CALM 0 0 0 0 1027.4 1027.3 0.8
26/03:30am 14.4 15.2 12.6 89 1.0 CALM 0 4 0 2 1027.5 1027.4 0.8
26/03:00am 14.1 14.4 12.1 88 1.1 SE 2 6 1 3 1027.5 1027.4 0.8
26/02:30am 13.9 14.5 11.9 88 1.1 CALM 0 0 0 0 1027.5 1027.4 0.8
26/02:00am 14.1 14.7 11.8 86 1.2 CALM 0 0 0 0 1027.5 1027.4 0.8
26/01:30am 14.6 15.2 11.9 84 1.5 CALM 0 0 0 0 1027.8 1027.6 0.8
26/01:00am 14.6 15.2 11.9 84 1.5 CALM 0 4 0 2 1027.9 1027.7 0.8
26/12:30am 14.5 15.3 12.7 89 1.0 CALM 0 4 0 2 1028.3 1028.1 0.8
26/12:00am 13.0 13.5 11.7 92 0.7 CALM 0 4 0 2 1028.4 1028.2 0.8
 
Date/Time
EST
Tmp

°C
App
Tmp
°C
Dew
Point
°C
Rel
Hum
%
Delta-T

°C
Wind Press
QNH
hPa
Press
MSL
hPa
Rain
since
9 am
mm
Dir
 
Spd
km/h
Gust
km/h
Spd
kts
Gust
kts
25/11:30pm 13.0 13.5 11.6 91 0.7 CALM 0 0 0 0 1028.8 1028.7 0.8
25/11:00pm 12.9 13.3 11.3 90 0.8 CALM 0 0 0 0 1028.7 1028.6 0.8
25/10:30pm 13.3 13.7 11.4 88 1.0 CALM 0 0 0 0 1028.9 1028.8 0.8
25/10:00pm 13.4 13.8 11.3 87 1.1 CALM 0 0 0 0 1029.1 1029.0 0.8
25/09:30pm 13.6 13.9 10.8 83 1.5 CALM 0 0 0 0 1029.4 1029.3 0.8
25/09:00pm 15.0 15.4 11.2 78 2.0 CALM 0 2 0 1 1029.4 1029.3 0.8
25/08:30pm 15.1 15.2 11.5 79 1.9 SW 2 4 1 2 1029.3 1029.2 0.8
25/08:00pm 15.2 15.2 11.2 77 2.1 SW 2 6 1 3 1029.1 1029.0 0.8
25/07:30pm 14.7 14.9 11.8 83 1.6 WSW 2 6 1 3 1029.0 1028.9 0.8
25/07:00pm 14.8 15.4 11.8 82 1.6 CALM 0 0 0 0 1028.8 1028.7 0.8
25/06:30pm 15.7 16.4 12.1 79 2.0 CALM 0 0 0 0 1028.5 1028.4 0.8
25/06:00pm 16.2 16.9 12.2 77 2.2 CALM 0 0 0 0 1028.4 1028.2 0.8
25/05:30pm 17.2 17.9 12.3 73 2.7 CALM 0 0 0 0 1028.1 1027.9 0.8
25/05:00pm 18.1 18.9 12.5 70 3.1 CALM 0 2 0 1 1028.2 1028.0 0.8
25/04:30pm 19.9 19.9 12.4 62 4.2 SSE 4 7 2 4 1028.1 1027.9 0.8
25/04:00pm 20.6 21.0 12.6 60 4.5 SSE 2 9 1 5 1028.0 1027.8 0.8
25/03:30pm 21.2 20.6 11.8 55 5.3 SE 6 13 3 7 1027.9 1027.7 0.8
25/03:00pm 20.9 20.4 12.1 57 4.9 SE 6 13 3 7 1027.6 1027.5 0.8
25/02:30pm 21.1 21.1 12.3 57 5.0 SE 4 11 2 6 1027.6 1027.5 0.8
25/02:00pm 21.4 20.1 11.1 52 5.7 ESE 9 20 5 11 1027.8 1027.6 0.8
25/01:30pm 21.7 20.8 11.4 52 5.7 ESE 7 17 4 9 1028.1 1027.9 0.8
25/01:00pm 22.3 21.3 12.3 53 5.6 E 9 24 5 13 1028.3 1028.1 0.8
25/12:30pm 22.1 21.5 12.4 54 5.5 SE 7 15 4 8 1028.6 1028.5 0.8

Latest Capital City Observations: Canberra | Sydney | Melbourne | Brisbane | Adelaide | Perth | Hobart | Darwin

Other Formats:

Comma delimited format used in spreadsheet applications
http://www.bom.gov.au/fwo/IDQ60901/IDQ60901.95572.axf

JavaScript Object Notation format (JSON) in row-major order
http://www.bom.gov.au/fwo/IDQ60901/IDQ60901.95572.json